TimeEST,TemperatureF,Dew PointF,Humidity,Sea Level PressureIn,VisibilityMPH,Wind Direction,Wind SpeedMPH,Gust SpeedMPH,PrecipitationIn,Events,Conditions,WindDirDegrees,DateUTC
12:53 AM,21.9,17.1,82,30.05,6.0,NW,10.4,-,0.00,Snow,Light Snow,310,2012-12-27 05:53:00
1:34 AM,21.2,15.8,80,30.01,8.0,NW,12.7,-,0.00,Snow,Light Snow,320,2012-12-27 06:34:00
1:53 AM,21.0,16.0,81,30.05,10.0,NW,11.5,-,0.00,,Scattered Clouds,320,2012-12-27 06:53:00
2:53 AM,19.9,15.1,81,30.08,10.0,NW,6.9,-,N/A,,Scattered Clouds,320,2012-12-27 07:53:00
3:04 AM,19.4,15.8,86,30.04,10.0,NNW,5.8,-,N/A,,Mostly Cloudy,330,2012-12-27 08:04:00
3:53 AM,21.9,17.1,82,30.08,10.0,NNW,9.2,-,N/A,,Overcast,340,2012-12-27 08:53:00
4:40 AM,23.0,17.6,80,30.05,10.0,NNW,6.9,-,N/A,,Overcast,340,2012-12-27 09:40:00
4:53 AM,23.0,17.1,78,30.09,10.0,NNW,8.1,-,N/A,,Overcast,340,2012-12-27 09:53:00
5:53 AM,23.0,17.1,78,30.11,8.0,NNW,6.9,-,0.00,Snow,Light Snow,340,2012-12-27 10:53:00
6:53 AM,23.0,18.0,81,30.12,6.0,NNW,5.8,-,0.00,Snow,Light Snow,330,2012-12-27 11:53:00
7:00 AM,23.0,17.6,80,30.09,6.0,NNW,6.9,-,0.00,Snow,Light Snow,330,2012-12-27 12:00:00
7:44 AM,23.0,19.4,86,30.10,7.0,NNW,3.5,-,0.00,Snow,Light Snow,330,2012-12-27 12:44:00
7:53 AM,23.0,18.0,81,30.14,7.0,NW,4.6,-,0.00,Snow,Light Snow,320,2012-12-27 12:53:00
8:53 AM,24.1,19.0,81,30.15,8.0,WNW,4.6,-,0.00,Snow,Light Snow,300,2012-12-27 13:53:00
9:53 AM,25.0,19.0,78,30.16,10.0,WNW,4.6,-,0.00,,Overcast,300,2012-12-27 14:53:00
10:53 AM,27.0,19.0,72,30.17,10.0,WNW,6.9,-,N/A,,Overcast,300,2012-12-27 15:53:00
11:53 AM,28.0,18.0,66,30.16,10.0,NW,4.6,-,N/A,,Mostly Cloudy,320,2012-12-27 16:53:00
12:53 PM,28.9,18.0,64,30.15,10.0,NW,5.8,-,N/A,,Mostly Cloudy,310,2012-12-27 17:53:00
1:53 PM,30.0,18.0,61,30.14,10.0,WNW,6.9,-,N/A,,Mostly Cloudy,300,2012-12-27 18:53:00
2:53 PM,30.9,19.0,61,30.14,10.0,WNW,4.6,-,N/A,,Mostly Cloudy,300,2012-12-27 19:53:00
3:53 PM,30.9,18.0,59,30.14,10.0,NW,4.6,-,N/A,,Mostly Cloudy,320,2012-12-27 20:53:00
4:53 PM,28.0,19.0,69,30.14,10.0,Calm,Calm,-,N/A,,Mostly Cloudy,0,2012-12-27 21:53:00
5:53 PM,24.1,18.0,77,30.16,10.0,Calm,Calm,-,N/A,,Mostly Cloudy,0,2012-12-27 22:53:00
6:53 PM,23.0,17.6,80,30.14,10.0,SW,5.8,-,N/A,,Mostly Cloudy,220,2012-12-27 23:53:00
7:53 PM,24.1,17.1,75,30.19,10.0,SW,3.5,-,N/A,,Overcast,230,2012-12-28 00:53:00
8:53 PM,23.0,17.1,78,30.17,10.0,East,3.5,-,N/A,,Overcast,100,2012-12-28 01:53:00
9:53 PM,23.0,18.0,81,30.17,10.0,Calm,Calm,-,N/A,,Overcast,0,2012-12-28 02:53:00
10:53 PM,21.9,18.0,85,30.17,10.0,NNE,3.5,-,N/A,,Mostly Cloudy,20,2012-12-28 03:53:00
11:53 PM,21.0,17.1,85,30.18,10.0,Calm,Calm,-,N/A,,Mostly Cloudy,0,2012-12-28 04:53:00